| time (UTC) | temp C | wind direction | speed KPH | gust KPH | rain 1hr cm | rain 24hr cm | rain mn cm | humidity % | barometer mb |
| 20260505235114 | 15 | 349 | 0.0 | 0.0 | 0.00 | 1.14 | 1.14 | 92 | 1007.0 |
| 20260505234611 | 15 | 345 | 0.0 | 0.0 | 0.00 | 1.14 | 1.14 | 92 | 1007.3 |
| 20260505234107 | 15 | 358 | 0.0 | 0.0 | 0.00 | 1.14 | 1.14 | 92 | 1007.0 |
| 20260505233605 | 15 | 348 | 0.0 | 0.0 | 0.00 | 1.14 | 1.14 | 92 | 1007.1 |
| 20260505233102 | 15 | 340 | 0.0 | 0.0 | 0.00 | 1.14 | 1.14 | 92 | 1006.9 |
| 20260505232600 | 15 | 348 | 0.0 | 0.0 | 0.00 | 1.14 | 1.14 | 92 | 1007.3 |
| 20260505232057 | 15 | 339 | 0.0 | 0.0 | 0.00 | 1.14 | 1.14 | 91 | 1007.0 |
| 20260505231554 | 15 | 351 | 0.0 | 0.0 | 0.00 | 1.14 | 1.14 | 91 | 1007.3 |
| 20260505231053 | 15 | 344 | 0.0 | 0.0 | 0.00 | 1.14 | 1.14 | 91 | 1007.3 |
| 20260505230550 | 15 | 338 | 0.0 | 0.0 | 0.00 | 1.14 | 1.14 | 91 | 1007.5 |
| 20260505230046 | 15 | 320 | 1.6 | 1.6 | 0.00 | 1.14 | 1.14 | 91 | 1007.6 |
| 20260505225543 | 15 | 28 | 1.6 | 3.2 | 0.00 | 1.14 | 1.14 | 91 | 1007.6 |
| 20260505225039 | 15 | 190 | 1.6 | 4.8 | 0.00 | 1.14 | 1.14 | 91 | 1007.6 |
| 20260505224536 | 15 | 355 | 1.6 | 1.6 | 0.00 | 1.14 | 1.14 | 91 | 1007.9 |
| 20260505224033 | 15 | 34 | 0.0 | 1.6 | 0.00 | 1.14 | 1.14 | 91 | 1008.0 |
| 20260505223530 | 15 | 356 | 1.6 | 1.6 | 0.00 | 1.14 | 1.14 | 91 | 1008.1 |
| 20260505223026 | 15 | 4 | 1.6 | 1.6 | 0.00 | 1.14 | 1.14 | 91 | 1008.0 |
| 20260505222523 | 15 | 354 | 1.6 | 1.6 | 0.00 | 1.14 | 1.14 | 91 | 1008.1 |
| 20260505222019 | 15 | 110 | 3.2 | 4.8 | 0.00 | 1.14 | 1.14 | 91 | 1008.2 |
| 20260505221517 | 15 | 308 | 1.6 | 1.6 | 0.13 | 1.14 | 1.14 | 91 | 1008.5 |
| 20260505221013 | 15 | 296 | 1.6 | 3.2 | 0.13 | 1.14 | 1.14 | 91 | 1008.5 |
| 20260505220510 | 15 | 151 | 8.0 | 11.3 | 0.00 | 1.12 | 1.12 | 92 | 1008.4 |
| 20260505220008 | 15 | 345 | 3.2 | 3.2 | 0.18 | 1.12 | 1.12 | 92 | 1008.5 |
| 20260505215506 | 15 | 347 | 1.6 | 1.6 | 0.18 | 1.12 | 1.12 | 92 | 1008.5 |
| 20260505215003 | 15 | 343 | 3.2 | 3.2 | 0.00 | 1.09 | 1.09 | 92 | 1008.4 |
| 20260505214502 | 16 | 148 | 3.2 | 3.2 | 0.00 | 1.09 | 1.09 | 92 | 1008.6 |
| 20260505213958 | 15 | 307 | 1.6 | 1.6 | 0.13 | 1.09 | 1.09 | 92 | 1008.6 |
| 20260505213456 | 15 | 299 | 3.2 | 3.2 | 0.13 | 1.09 | 1.09 | 92 | 1008.5 |
| 20260505212952 | 15 | 332 | 0.0 | 0.0 | 0.00 | 1.07 | 1.07 | 92 | 1008.4 |
| 20260505212448 | 15 | 309 | 0.0 | 0.0 | 0.00 | 1.07 | 1.07 | 92 | 1008.6 |
| 20260505211945 | 15 | 338 | 0.0 | 0.0 | 0.18 | 1.07 | 1.07 | 92 | 1008.6 |
| 20260505211443 | 15 | 324 | 1.6 | 1.6 | 0.18 | 1.07 | 1.07 | 92 | 1008.6 |
| 20260505210939 | 15 | 327 | 1.6 | 1.6 | 0.13 | 1.04 | 1.04 | 91 | 1008.6 |
| 20260505210436 | 15 | 189 | 3.2 | 3.2 | 1.19 | 1.04 | 1.04 | 91 | 1008.7 |
| 20260505205933 | 15 | 254 | 3.2 | 3.2 | 1.37 | 1.02 | 1.02 | 91 | 1008.7 |
| 20260505205431 | 15 | 288 | 1.6 | 1.6 | 0.71 | 0.86 | 0.86 | 91 | 1008.8 |
| 20260505204928 | 15 | 331 | 1.6 | 1.6 | 0.61 | 0.79 | 0.79 | 91 | 1008.6 |
| 20260505204426 | 15 | 331 | 1.6 | 1.6 | 0.48 | 0.74 | 0.74 | 90 | 1008.5 |
| 20260505203923 | 16 | 307 | 1.6 | 3.2 | 0.18 | 0.69 | 0.69 | 90 | 1008.6 |
| 20260505203419 | 15 | 317 | 1.6 | 1.6 | 0.30 | 0.66 | 0.66 | 90 | 1008.7 |
| 20260505202915 | 16 | 166 | 3.2 | 4.8 | 0.61 | 0.66 | 0.66 | 89 | 1008.6 |
| 20260505202411 | 16 | 135 | 3.2 | 4.8 | 1.37 | 0.64 | 0.64 | 88 | 1008.7 |
| 20260505201908 | 16 | 321 | 1.6 | 1.6 | 2.59 | 0.51 | 0.51 | 87 | 1008.9 |
| 20260505201405 | 16 | 322 | 3.2 | 4.8 | 2.29 | 0.43 | 0.43 | 85 | 1008.9 |
| 20260505200904 | 18 | 301 | 3.2 | 3.2 | 0.18 | 0.08 | 0.08 | 78 | 1008.7 |
| 20260505200400 | 19 | 305 | 1.6 | 1.6 | 0.00 | 0.05 | 0.05 | 70 | 1008.0 |
| 20260505195856 | 20 | 330 | 1.6 | 1.6 | 0.00 | 0.05 | 0.05 | 68 | 1008.1 |
| 20260505195353 | 20 | 316 | 4.8 | 11.3 | 0.00 | 0.05 | 0.05 | 64 | 1008.2 |
| 20260505194850 | 20 | 230 | 3.2 | 3.2 | 0.00 | 0.05 | 0.05 | 63 | 1008.3 |
| 20260505194349 | 20 | 162 | 6.4 | 6.4 | 0.00 | 0.05 | 0.05 | 63 | 1008.3 |
| 20260505193848 | 21 | 164 | 3.2 | 6.4 | 0.00 | 0.05 | 0.05 | 63 | 1008.3 |
| 20260505193346 | 21 | 152 | 3.2 | 4.8 | 0.00 | 0.05 | 0.05 | 63 | 1008.3 |
| 20260505192844 | 20 | 165 | 4.8 | 11.3 | 0.00 | 0.05 | 0.05 | 63 | 1008.4 |
| 20260505192342 | 20 | 187 | 4.8 | 6.4 | 0.00 | 0.05 | 0.05 | 64 | 1008.4 |
| 20260505191839 | 20 | 245 | 1.6 | 1.6 | 0.00 | 0.05 | 0.05 | 63 | 1008.5 |
| 20260505191338 | 20 | 329 | 0.0 | 0.0 | 0.00 | 0.05 | 0.05 | 64 | 1008.5 |
| 20260505190834 | 20 | 231 | 3.2 | 3.2 | 0.00 | 0.05 | 0.05 | 63 | 1008.4 |
| 20260505190329 | 20 | 22 | 3.2 | 4.8 | 0.00 | 0.05 | 0.05 | 64 | 1008.3 |
| 20260505185825 | 20 | 343 | 3.2 | 3.2 | 0.00 | 0.05 | 0.05 | 63 | 1008.5 |
| 20260505185322 | 20 | 179 | 1.6 | 4.8 | 0.00 | 0.05 | 0.05 | 64 | 1008.7 |
| 20260505184818 | 20 | 0 | 0.0 | 1.6 | 0.00 | 0.05 | 0.05 | 64 | 1008.6 |
| 20260505184315 | 20 | 275 | 3.2 | 4.8 | 0.00 | 0.05 | 0.05 | 64 | 1008.8 |
| 20260505183812 | 20 | 219 | 6.4 | 6.4 | 0.00 | 0.05 | 0.05 | 63 | 1008.9 |
| 20260505183309 | 20 | 82 | 3.2 | 4.8 | 0.00 | 0.05 | 0.05 | 63 | 1009.0 |
| 20260505182806 | 20 | 207 | 4.8 | 6.4 | 0.00 | 0.05 | 0.05 | 62 | 1009.1 |
| 20260505182305 | 20 | 322 | 1.6 | 3.2 | 0.00 | 0.05 | 0.05 | 63 | 1008.9 |
| 20260505181759 | 20 | 265 | 4.8 | 4.8 | 0.00 | 0.05 | 0.05 | 62 | 1009.1 |
| 20260505181257 | 20 | 192 | 4.8 | 6.4 | 0.00 | 0.05 | 0.05 | 62 | 1009.3 |
| 20260505180753 | 20 | 157 | 9.7 | 11.3 | 0.00 | 0.05 | 0.05 | 61 | 1009.2 |
| 20260505180249 | 20 | 94 | 4.8 | 4.8 | 0.00 | 0.05 | 0.05 | 63 | 1009.4 |
| 20260505175746 | 20 | 210 | 4.8 | 6.4 | 0.00 | 0.05 | 0.05 | 62 | 1009.3 |
| 20260505175243 | 20 | 202 | 6.4 | 6.4 | 0.00 | 0.05 | 0.05 | 62 | 1009.2 |
| 20260505174739 | 20 | 280 | 1.6 | 1.6 | 0.00 | 0.05 | 0.05 | 63 | 1009.3 |
| 20260505174237 | 20 | 268 | 4.8 | 6.4 | 0.00 | 0.05 | 0.05 | 62 | 1009.3 |
| 20260505173732 | 20 | 303 | 1.6 | 1.6 | 0.00 | 0.05 | 0.05 | 63 | 1009.2 |
| 20260505173229 | 20 | 162 | 9.7 | 11.3 | 0.00 | 0.05 | 0.05 | 63 | 1009.5 |
| 20260505172726 | 20 | 138 | 4.8 | 4.8 | 0.00 | 0.05 | 0.05 | 62 | 1009.3 |
| 20260505172223 | 20 | 295 | 0.0 | 1.6 | 0.00 | 0.05 | 0.05 | 63 | 1009.6 |
| 20260505171723 | 20 | 345 | 1.6 | 1.6 | 0.00 | 0.05 | 0.05 | 63 | 1009.6 |
| 20260505171220 | 19 | 319 | 1.6 | 3.2 | 0.00 | 0.05 | 0.05 | 63 | 1009.6 |
| 20260505170717 | 19 | 357 | 3.2 | 3.2 | 0.00 | 0.05 | 0.05 | 62 | 1009.5 |
| 20260505170214 | 19 | 253 | 1.6 | 3.2 | 0.00 | 0.05 | 0.05 | 61 | 1009.5 |
| 20260505165709 | 20 | 153 | 4.8 | 6.4 | 0.00 | 0.05 | 0.05 | 61 | 1009.5 |
| 20260505165205 | 20 | 270 | 1.6 | 3.2 | 0.00 | 0.05 | 0.05 | 63 | 1009.6 |
| 20260505164701 | 20 | 156 | 3.2 | 4.8 | 0.00 | 0.05 | 0.05 | 62 | 1009.5 |
| 20260505164158 | 19 | 137 | 3.2 | 4.8 | 0.00 | 0.05 | 0.05 | 63 | 1009.5 |
| 20260505163656 | 19 | 231 | 6.4 | 6.4 | 0.00 | 0.05 | 0.05 | 63 | 1009.5 |
| 20260505163154 | 19 | 328 | 3.2 | 4.8 | 0.00 | 0.05 | 0.05 | 62 | 1009.5 |
| 20260505162652 | 20 | 327 | 0.0 | 0.0 | 0.00 | 0.05 | 0.05 | 62 | 1009.5 |
| 20260505162149 | 20 | 163 | 3.2 | 6.4 | 0.00 | 0.05 | 0.05 | 63 | 1009.5 |
| 20260505161646 | 20 | 255 | 3.2 | 3.2 | 0.00 | 0.05 | 0.05 | 61 | 1009.7 |
| 20260505161143 | 20 | 156 | 3.2 | 4.8 | 0.00 | 0.05 | 0.05 | 62 | 1009.7 |
| 20260505160641 | 20 | 334 | 3.2 | 4.8 | 0.00 | 0.05 | 0.05 | 62 | 1009.5 |
| 20260505160138 | 19 | 40 | 3.2 | 4.8 | 0.00 | 0.05 | 0.05 | 63 | 1009.6 |
| 20260505153117 | 19 | 271 | 3.2 | 3.2 | 0.00 | 0.05 | 0.05 | 64 | 1009.4 |
| 20260505152614 | 19 | 278 | 4.8 | 4.8 | 0.00 | 0.05 | 0.05 | 64 | 1009.5 |
| 20260505152110 | 19 | 326 | 4.8 | 6.4 | 0.00 | 0.05 | 0.05 | 64 | 1009.3 |
| 20260505151605 | 18 | 323 | 1.6 | 1.6 | 0.00 | 0.05 | 0.05 | 64 | 1009.4 |
| 20260505151103 | 18 | 334 | 1.6 | 3.2 | 0.00 | 0.05 | 0.05 | 64 | 1009.6 |
| 20260505150559 | 18 | 270 | 1.6 | 3.2 | 0.00 | 0.05 | 0.05 | 67 | 1009.3 |
| 20260505140524 | 18 | 342 | 0.0 | 0.0 | 0.00 | 0.05 | 0.05 | 71 | 1008.5 |
| 20260505124937 | 16 | 298 | 1.6 | 3.2 | 0.00 | 0.05 | 0.05 | 81 | 1009.1 |
| 20260505124434 | 16 | 330 | 1.6 | 3.2 | 0.00 | 0.05 | 0.05 | 81 | 1009.2 |
| 20260505123930 | 16 | 327 | 0.0 | 0.0 | 0.00 | 0.05 | 0.05 | 82 | 1009.3 |
| 20260505123427 | 16 | 331 | 0.0 | 0.0 | 0.00 | 0.05 | 0.05 | 83 | 1009.3 |
| 20260505122923 | 16 | 346 | 0.0 | 0.0 | 0.00 | 0.05 | 0.05 | 84 | 1009.3 |
| 20260505122421 | 15 | 315 | 1.6 | 1.6 | 0.13 | 0.05 | 0.05 | 85 | 1009.2 |
| 20260505121917 | 15 | 145 | 1.6 | 1.6 | 0.13 | 0.05 | 0.05 | 86 | 1009.4 |
| 20260505121414 | 15 | 146 | 1.6 | 3.2 | 0.13 | 0.05 | 0.05 | 86 | 1009.4 |
| 20260505120910 | 14 | 329 | 0.0 | 1.6 | 0.00 | 0.03 | 0.03 | 88 | 1009.4 |
| 20260505120407 | 14 | 340 | 0.0 | 0.0 | 0.00 | 0.03 | 0.03 | 89 | 1009.4 |
| 20260505115905 | 14 | 335 | 0.0 | 0.0 | 0.00 | 0.03 | 0.03 | 89 | 1009.5 |
| 20260505115402 | 13 | 324 | 0.0 | 0.0 | 0.00 | 0.03 | 0.03 | 89 | 1009.6 |
| 20260505114901 | 13 | 316 | 1.6 | 1.6 | 0.00 | 0.03 | 0.03 | 89 | 1009.4 |
| 20260505114356 | 13 | 325 | 0.0 | 0.0 | 0.00 | 0.03 | 0.03 | 89 | 1009.4 |
| 20260505113853 | 13 | 334 | 0.0 | 0.0 | 0.00 | 0.03 | 0.03 | 90 | 1008.9 |
| 20260505113350 | 13 | 324 | 1.6 | 3.2 | 0.00 | 0.03 | 0.03 | 89 | 1008.6 |
| 20260505112845 | 13 | 340 | 0.0 | 0.0 | 0.00 | 0.03 | 0.03 | 89 | 1008.7 |
| 20260505112343 | 13 | 343 | 0.0 | 0.0 | 0.00 | 0.03 | 0.03 | 89 | 1008.7 |
| 20260505111839 | 13 | 343 | 0.0 | 0.0 | 0.18 | 0.03 | 0.03 | 89 | 1009.0 |
| 20260505111334 | 13 | 343 | 0.0 | 0.0 | 0.18 | 0.03 | 0.03 | 88 | 1009.0 |
| 20260505110830 | 13 | 343 | 1.6 | 1.6 | 0.00 | 0.00 | 0.00 | 88 | 1009.1 |
| 20260505110328 | 13 | 342 | 0.0 | 0.0 | 0.00 | 0.00 | 0.00 | 87 | 1008.8 |
| 20260505101803 | 16 | 250 | 3.2 | 4.8 | 0.00 | 0.00 | 0.00 | 75 | 1009.2 |
| 20260505101258 | 16 | 222 | 8.0 | 11.3 | 0.00 | 0.00 | 0.00 | 70 | 1009.3 |
| 20260505100754 | 16 | 221 | 3.2 | 4.8 | 0.00 | 0.00 | 0.00 | 68 | 1009.2 |
| 20260505100251 | 17 | 328 | 0.0 | 1.6 | 0.00 | 0.00 | 0.00 | 63 | 1009.0 |
| 20260505095747 | 17 | 323 | 1.6 | 1.6 | 0.00 | 0.00 | 0.00 | 63 | 1008.9 |
| 20260505095245 | 17 | 297 | 1.6 | 1.6 | 0.00 | 0.00 | 0.00 | 63 | 1008.7 |
| 20260505094740 | 17 | 316 | 1.6 | 3.2 | 0.00 | 0.00 | 0.00 | 62 | 1008.5 |
| 20260505094237 | 17 | 337 | 1.6 | 1.6 | 0.00 | 0.00 | 0.00 | 62 | 1008.4 |
| 20260505093733 | 17 | 329 | 1.6 | 1.6 | 0.00 | 0.00 | 0.00 | 62 | 1008.5 |
| 20260505093231 | 17 | 315 | 3.2 | 3.2 | 0.00 | 0.00 | 0.00 | 62 | 1008.4 |
| 20260505092727 | 17 | 331 | 0.0 | 0.0 | 0.00 | 0.00 | 0.00 | 61 | 1008.2 |
| 20260505092226 | 17 | 320 | 1.6 | 1.6 | 0.00 | 0.00 | 0.00 | 61 | 1008.3 |
| 20260505091723 | 17 | 317 | 1.6 | 1.6 | 0.00 | 0.00 | 0.00 | 61 | 1008.0 |
| 20260505091221 | 17 | 308 | 1.6 | 1.6 | 0.00 | 0.00 | 0.00 | 62 | 1008.2 |
| 20260505090718 | 17 | 310 | 1.6 | 1.6 | 0.00 | 0.00 | 0.00 | 62 | 1008.1 |
| 20260505090216 | 17 | 15 | 1.6 | 3.2 | 0.00 | 0.00 | 0.00 | 61 | 1007.9 |
| 20260505085713 | 17 | 284 | 1.6 | 3.2 | 0.00 | 0.00 | 0.00 | 61 | 1008.1 |
| 20260505085212 | 17 | 348 | 1.6 | 1.6 | 0.00 | 0.00 | 0.00 | 63 | 1007.8 |
| 20260505084709 | 17 | 352 | 0.0 | 1.6 | 0.00 | 0.00 | 0.00 | 62 | 1007.9 |
| 20260505084208 | 17 | 340 | 0.0 | 1.6 | 0.00 | 0.00 | 0.00 | 63 | 1007.8 |
| 20260505083704 | 16 | 348 | 1.6 | 1.6 | 0.00 | 0.00 | 0.00 | 63 | 1007.8 |
| 20260505083201 | 16 | 344 | 0.0 | 0.0 | 0.00 | 0.00 | 0.00 | 64 | 1007.8 |
| 20260505082657 | 16 | 339 | 0.0 | 1.6 | 0.00 | 0.00 | 0.00 | 63 | 1007.6 |
| 20260505082154 | 16 | 349 | 0.0 | 0.0 | 0.00 | 0.00 | 0.00 | 63 | 1007.7 |
| 20260505081650 | 17 | 10 | 1.6 | 1.6 | 0.00 | 0.00 | 0.00 | 62 | 1007.6 |
| 20260505081148 | 17 | 346 | 0.0 | 1.6 | 0.00 | 0.00 | 0.00 | 62 | 1007.5 |
| 20260505080644 | 17 | 340 | 0.0 | 0.0 | 0.00 | 0.00 | 0.00 | 62 | 1007.5 |
| 20260505080140 | 17 | 142 | 3.2 | 4.8 | 0.00 | 0.00 | 0.00 | 63 | 1007.6 |
| 20260505075636 | 17 | 315 | 1.6 | 1.6 | 0.00 | 0.00 | 0.00 | 62 | 1007.7 |
| 20260505075133 | 17 | 338 | 0.0 | 0.0 | 0.00 | 0.00 | 0.00 | 62 | 1007.6 |
| 20260505074630 | 17 | 336 | 0.0 | 0.0 | 0.00 | 0.00 | 0.00 | 63 | 1007.5 |
| 20260505074127 | 17 | 339 | 0.0 | 0.0 | 0.00 | 0.00 | 0.00 | 62 | 1007.3 |
| 20260505073625 | 17 | 329 | 0.0 | 0.0 | 0.00 | 0.00 | 0.00 | 61 | 1007.0 |
| 20260505073123 | 17 | 223 | 4.8 | 4.8 | 0.00 | 0.00 | 0.00 | 61 | 1007.1 |
| 20260505072618 | 17 | 164 | 3.2 | 3.2 | 0.00 | 0.00 | 0.00 | 60 | 1006.8 |
| 20260505072115 | 17 | 311 | 3.2 | 3.2 | 0.00 | 0.00 | 0.00 | 60 | 1006.8 |
| 20260505071611 | 17 | 332 | 0.0 | 0.0 | 0.00 | 0.00 | 0.00 | 60 | 1007.0 |
| 20260505071109 | 18 | 319 | 1.6 | 1.6 | 0.00 | 0.00 | 0.00 | 60 | 1006.9 |
| 20260505070606 | 18 | 215 | 4.8 | 4.8 | 0.00 | 0.00 | 0.00 | 60 | 1006.8 |
| 20260505065558 | 17 | 254 | 3.2 | 4.8 | 0.00 | 0.00 | 0.00 | 60 | 1006.8 |
| 20260505065054 | 18 | 323 | 1.6 | 1.6 | 0.00 | 0.00 | 0.00 | 60 | 1007.0 |
| 20260505064551 | 18 | 154 | 3.2 | 3.2 | 0.00 | 0.00 | 0.00 | 59 | 1006.8 |
| 20260505064050 | 18 | 162 | 8.0 | 11.3 | 0.00 | 0.00 | 0.00 | 60 | 1007.1 |
| 20260505063547 | 18 | 320 | 0.0 | 1.6 | 0.00 | 0.00 | 0.00 | 60 | 1006.9 |
| 20260505063042 | 18 | 223 | 3.2 | 4.8 | 0.00 | 0.00 | 0.00 | 60 | 1007.1 |
| 20260505062539 | 18 | 178 | 6.4 | 9.7 | 0.00 | 0.00 | 0.00 | 59 | 1007.0 |
| 20260505062037 | 18 | 141 | 3.2 | 4.8 | 0.00 | 0.00 | 0.00 | 60 | 1007.0 |
| 20260505061534 | 18 | 286 | 1.6 | 1.6 | 0.00 | 0.00 | 0.00 | 60 | 1006.7 |
| 20260505061032 | 18 | 184 | 6.4 | 9.7 | 0.00 | 0.00 | 0.00 | 59 | 1006.8 |
| 20260505060529 | 18 | 286 | 1.6 | 3.2 | 0.00 | 0.00 | 0.00 | 59 | 1006.8 |
| 20260505060026 | 18 | 154 | 8.0 | 9.7 | 0.00 | 0.00 | 0.00 | 59 | 1006.5 |
| 20260505055521 | 18 | 349 | 4.8 | 6.4 | 0.00 | 0.00 | 0.00 | 60 | 1006.7 |
| 20260505055018 | 18 | 228 | 3.2 | 3.2 | 0.00 | 0.00 | 0.00 | 60 | 1006.5 |
| 20260505054515 | 18 | 136 | 3.2 | 4.8 | 0.00 | 0.00 | 0.00 | 60 | 1006.6 |
| 20260505054013 | 18 | 332 | 1.6 | 3.2 | 0.00 | 0.00 | 0.00 | 61 | 1006.7 |
| 20260505053510 | 18 | 226 | 3.2 | 4.8 | 0.00 | 0.00 | 0.00 | 59 | 1006.5 |
| 20260505053007 | 18 | 255 | 4.8 | 6.4 | 0.00 | 0.00 | 0.00 | 60 | 1006.4 |
| 20260505052504 | 18 | 185 | 4.8 | 4.8 | 0.00 | 0.00 | 0.00 | 59 | 1006.6 |
| 20260505052001 | 18 | 211 | 1.6 | 4.8 | 0.00 | 0.00 | 0.00 | 60 | 1006.7 |
| 20260505051458 | 18 | 324 | 0.0 | 0.0 | 0.00 | 0.00 | 0.00 | 60 | 1006.7 |
| 20260505050956 | 18 | 8 | 1.6 | 1.6 | 0.00 | 0.00 | 0.00 | 59 | 1006.8 |
| 20260505050454 | 18 | 314 | 1.6 | 1.6 | 0.00 | 0.00 | 0.00 | 59 | 1006.8 |
| 20260505041422 | 19 | 95 | 3.2 | 4.8 | 0.00 | 0.00 | 0.00 | 59 | 1007.0 |
| 20260505040919 | 19 | 210 | 4.8 | 6.4 | 0.00 | 0.00 | 0.00 | 59 | 1007.3 |
| 20260505040416 | 18 | 316 | 1.6 | 1.6 | 0.00 | 0.00 | 0.00 | 61 | 1007.0 |
| 20260505035913 | 19 | 322 | 0.0 | 1.6 | 0.00 | 0.00 | 0.00 | 60 | 1007.1 |
| 20260505035409 | 19 | 192 | 3.2 | 3.2 | 0.00 | 0.00 | 0.00 | 60 | 1007.1 |
| 20260505034906 | 19 | 1 | 1.6 | 3.2 | 0.00 | 0.00 | 0.00 | 60 | 1007.0 |
| 20260505034403 | 19 | 266 | 3.2 | 3.2 | 0.00 | 0.00 | 0.00 | 60 | 1007.1 |
| 20260505033900 | 19 | 49 | 1.6 | 1.6 | 0.00 | 0.00 | 0.00 | 60 | 1007.0 |
| 20260505033356 | 20 | 7 | 1.6 | 3.2 | 0.00 | 0.00 | 0.00 | 59 | 1006.8 |
| 20260505032855 | 20 | 350 | 0.0 | 1.6 | 0.00 | 0.00 | 0.00 | 59 | 1006.9 |
| 20260505032351 | 19 | 52 | 1.6 | 1.6 | 0.00 | 0.00 | 0.00 | 59 | 1006.9 |
| 20260505031848 | 19 | 255 | 3.2 | 3.2 | 0.00 | 0.00 | 0.00 | 60 | 1006.9 |
| 20260505031344 | 19 | 289 | 1.6 | 1.6 | 0.00 | 0.00 | 0.00 | 59 | 1006.7 |
| 20260505030842 | 19 | 275 | 1.6 | 3.2 | 0.00 | 0.00 | 0.00 | 60 | 1006.8 |
| 20260505030338 | 20 | 154 | 4.8 | 4.8 | 0.00 | 0.00 | 0.00 | 59 | 1006.6 |
| 20260505025833 | 19 | 321 | 1.6 | 1.6 | 0.00 | 0.00 | 0.00 | 59 | 1006.7 |
| 20260505025331 | 19 | 328 | 1.6 | 1.6 | 0.00 | 0.00 | 0.00 | 59 | 1006.6 |
| 20260505024829 | 18 | 351 | 1.6 | 1.6 | 0.00 | 0.00 | 0.00 | 60 | 1006.5 |
| 20260505024327 | 18 | 349 | 0.0 | 0.0 | 0.00 | 0.00 | 0.00 | 62 | 1006.7 |
| 20260505023824 | 18 | 6 | 1.6 | 1.6 | 0.00 | 0.00 | 0.00 | 61 | 1006.5 |
| 20260505023321 | 18 | 344 | 0.0 | 1.6 | 0.00 | 0.00 | 0.00 | 60 | 1006.4 |
| 20260505022818 | 18 | 347 | 1.6 | 1.6 | 0.00 | 0.00 | 0.00 | 61 | 1006.5 |
| 20260505022315 | 18 | 358 | 1.6 | 1.6 | 0.00 | 0.00 | 0.00 | 60 | 1006.5 |
| 20260505021812 | 18 | 345 | 0.0 | 0.0 | 0.00 | 0.00 | 0.00 | 62 | 1006.4 |
| 20260505021309 | 18 | 348 | 0.0 | 0.0 | 0.00 | 0.00 | 0.00 | 61 | 1006.1 |
| 20260505020804 | 18 | 349 | 0.0 | 0.0 | 0.00 | 0.00 | 0.00 | 61 | 1006.2 |
| 20260505020300 | 18 | 346 | 0.0 | 0.0 | 0.00 | 0.00 | 0.00 | 61 | 1006.3 |
| 20260505015757 | 18 | 342 | 0.0 | 0.0 | 0.00 | 0.00 | 0.00 | 60 | 1006.0 |
| 20260505015254 | 18 | 359 | 0.0 | 0.0 | 0.00 | 0.00 | 0.00 | 60 | 1006.2 |
| 20260505014751 | 19 | 350 | 0.0 | 0.0 | 0.00 | 0.00 | 0.00 | 60 | 1005.9 |
| 20260505014249 | 19 | 346 | 0.0 | 0.0 | 0.00 | 0.00 | 0.00 | 59 | 1006.0 |
| 20260505013745 | 19 | 348 | 0.0 | 1.6 | 0.00 | 0.00 | 0.00 | 59 | 1006.2 |
| 20260505013242 | 19 | 354 | 0.0 | 0.0 | 0.00 | 0.00 | 0.00 | 59 | 1005.9 |
| 20260505012741 | 20 | 346 | 0.0 | 1.6 | 0.00 | 0.00 | 0.00 | 57 | 1006.0 |
| 20260505012238 | 20 | 0 | 0.0 | 0.0 | 0.00 | 0.00 | 0.00 | 57 | 1005.9 |
| 20260505011733 | 20 | 353 | 0.0 | 0.0 | 0.00 | 0.00 | 0.00 | 58 | 1005.9 |
| 20260505011231 | 20 | 347 | 0.0 | 0.0 | 0.00 | 0.00 | 0.00 | 56 | 1005.8 |
| 20260505010726 | 20 | 280 | 1.6 | 3.2 | 0.00 | 0.00 | 0.00 | 57 | 1005.7 |
| 20260505010223 | 20 | 351 | 0.0 | 1.6 | 0.00 | 0.00 | 0.00 | 56 | 1005.9 |
| 20260505005719 | 20 | 348 | 1.6 | 1.6 | 0.00 | 0.00 | 0.00 | 55 | 1005.7 |
| 20260505005216 | 21 | 297 | 1.6 | 1.6 | 0.00 | 0.00 | 0.00 | 55 | 1005.8 |
| 20260505004713 | 21 | 339 | 1.6 | 1.6 | 0.00 | 0.00 | 0.00 | 53 | 1005.8 |
| 20260505004210 | 21 | 339 | 0.0 | 0.0 | 0.00 | 0.00 | 0.00 | 53 | 1005.8 |
| 20260505003707 | 21 | 93 | 3.2 | 3.2 | 0.00 | 0.00 | 0.00 | 53 | 1005.7 |
| 20260505003205 | 21 | 353 | 1.6 | 1.6 | 0.00 | 0.00 | 0.00 | 53 | 1005.7 |
| 20260505002701 | 21 | 207 | 3.2 | 4.8 | 0.00 | 0.00 | 0.00 | 52 | 1005.8 |
| 20260505002159 | 21 | 342 | 1.6 | 1.6 | 0.00 | 0.00 | 0.00 | 51 | 1005.7 |
| 20260505001655 | 21 | 27 | 1.6 | 1.6 | 0.00 | 0.00 | 0.00 | 51 | 1005.9 |
| 20260505001153 | 22 | 156 | 3.2 | 4.8 | 0.00 | 0.00 | 0.00 | 49 | 1005.9 |
| 20260505000650 | 21 | 206 | 3.2 | 4.8 | 0.00 | 0.00 | 0.00 | 49 | 1006.1 |
| 20260505000148 | 21 | 323 | 1.6 | 1.6 | 0.00 | 0.00 | 0.00 | 50 | 1006.0 |
| 20260504235644 | 22 | 356 | 0.0 | 1.6 | 0.00 | 0.00 | 0.00 | 49 | 1006.2 |